STARLINK-1052

Last updated on Dec. 12, 2019, 12:02 a.m. UTC

1 44739U 19074AC  19345.58335648  .00064695  00000-0  47801-3 0  9995
2 44739  53.0100  21.5510 0008556 321.1483  87.2862 15.72340633  4739
UTC
Height (km)
Latitude
Longitude
Inclination
Orbital Period
UTC large
Height (km)
Speed (km/s)
/
Latitude / Longitude
Inclination (degrees)
Orbital Period (minutes)
Azimuth
Elevation
Range (km)
Doppler Factor
iOS Compass Heading
iOS Angle

Next 30 passes for location: Hong Kong

Rise time Rise Azimuth (degrees) Set time Set Azimuth (degrees) Duration Max altitude (degrees)

No matching passes for this satellites